| time (UTC) | temp C | wind direction | speed KPH | gust KPH | rain 1hr cm | rain 24hr cm | rain mn cm | humidity % | barometer mb |
| 20260905150038 | 10 | 132 | 0.0 | 0.0 | 0.00 | 0.00 | 0.00 | 81 | 1016.9 |
| 20260905144542 | 10 | 132 | 0.0 | 0.0 | 0.00 | 0.00 | 0.00 | 80 | 1016.9 |
| 20260905143035 | 9 | 132 | 0.0 | 0.0 | 0.00 | 0.00 | 0.00 | 80 | 1016.8 |
| 20260905141541 | 10 | 132 | 0.0 | 0.0 | 0.00 | 0.00 | 0.00 | 80 | 1016.7 |
| 20260905140033 | 10 | 132 | 0.0 | 0.0 | 0.00 | 0.00 | 0.00 | 80 | 1016.7 |
| 20260905134534 | 10 | 132 | 0.0 | 0.0 | 0.00 | 0.00 | 0.00 | 80 | 1016.6 |
| 20260905133030 | 10 | 132 | 0.0 | 0.0 | 0.00 | 0.00 | 0.00 | 80 | 1016.6 |
| 20260905131544 | 10 | 132 | 0.0 | 0.0 | 0.00 | 0.00 | 0.00 | 79 | 1016.6 |
| 20260905130030 | 10 | 132 | 0.0 | 0.0 | 0.00 | 0.00 | 0.00 | 79 | 1016.4 |
| 20260905124537 | 10 | 132 | 0.0 | 0.0 | 0.00 | 0.00 | 0.00 | 79 | 1016.3 |
| 20260905123025 | 10 | 132 | 0.0 | 0.0 | 0.00 | 0.00 | 0.00 | 78 | 1016.3 |
| 20260905121530 | 10 | 132 | 0.0 | 0.0 | 0.00 | 0.00 | 0.00 | 78 | 1016.4 |
| 20260905120022 | 10 | 132 | 0.0 | 0.0 | 0.00 | 0.00 | 0.00 | 77 | 1016.4 |
| 20260905114536 | 10 | 132 | 0.0 | 0.0 | 0.00 | 0.00 | 0.00 | 76 | 1016.2 |
| 20260905113120 | 10 | 132 | 0.0 | 0.0 | 0.00 | 0.00 | 0.00 | 76 | 1016.1 |
| 20260905111519 | 10 | 130 | 0.0 | 0.0 | 0.00 | 0.00 | 0.00 | 76 | 1016.1 |
| 20260905110018 | 10 | 120 | 0.0 | 0.0 | 0.00 | 0.00 | 0.00 | 75 | 1016.2 |
| 20260905104516 | 10 | 120 | 0.0 | 0.0 | 0.00 | 0.00 | 0.00 | 73 | 1016.1 |
| 20260905103025 | 10 | 120 | 0.0 | 0.0 | 0.00 | 0.00 | 0.00 | 73 | 1016.0 |
| 20260905101524 | 10 | 120 | 0.0 | 0.0 | 0.00 | 0.00 | 0.00 | 72 | 1016.1 |
| 20260905100014 | 10 | 120 | 0.0 | 0.0 | 0.00 | 0.00 | 0.00 | 71 | 1016.1 |
| 20260905094512 | 10 | 120 | 0.0 | 0.0 | 0.00 | 0.00 | 0.00 | 71 | 1016.0 |
| 20260905093010 | 10 | 120 | 0.0 | 0.0 | 0.00 | 0.00 | 0.00 | 70 | 1016.0 |
| 20260905091509 | 11 | 120 | 0.0 | 0.0 | 0.00 | 0.00 | 0.00 | 69 | 1016.0 |
| 20260905090007 | 11 | 120 | 0.0 | 0.0 | 0.00 | 0.00 | 0.00 | 69 | 1015.7 |
| 20260905084515 | 11 | 120 | 0.0 | 0.0 | 0.00 | 0.00 | 0.00 | 69 | 1015.7 |
| 20260905083003 | 11 | 119 | 0.0 | 0.0 | 0.00 | 0.00 | 0.00 | 68 | 1015.8 |
| 20260905081502 | 11 | 119 | 0.0 | 0.0 | 0.00 | 0.00 | 0.00 | 68 | 1015.8 |
| 20260905080100 | 11 | 119 | 0.0 | 0.0 | 0.00 | 0.00 | 0.00 | 68 | 1015.8 |
| 20260905074559 | 11 | 119 | 0.0 | 0.0 | 0.00 | 0.00 | 0.00 | 67 | 1015.7 |
| 20260905073055 | 12 | 119 | 0.0 | 0.0 | 0.00 | 0.00 | 0.00 | 67 | 1015.3 |
| 20260905071559 | 12 | 119 | 0.0 | 0.0 | 0.00 | 0.00 | 0.00 | 67 | 1015.3 |
| 20260905070058 | 12 | 94 | 0.0 | 0.0 | 0.00 | 0.00 | 0.00 | 67 | 1015.2 |
| 20260905064551 | 12 | 94 | 0.0 | 0.0 | 0.00 | 0.00 | 0.00 | 67 | 1015.2 |
| 20260905063054 | 12 | 94 | 0.0 | 0.0 | 0.00 | 0.00 | 0.00 | 67 | 1015.2 |
| 20260905061602 | 13 | 94 | 0.0 | 0.0 | 0.00 | 0.00 | 0.00 | 67 | 1015.2 |
| 20260905060050 | 13 | 94 | 0.0 | 0.0 | 0.00 | 0.00 | 0.00 | 66 | 1015.2 |
| 20260905054551 | 13 | 94 | 0.0 | 0.0 | 0.00 | 0.00 | 0.00 | 65 | 1015.3 |
| 20260905053056 | 13 | 93 | 0.0 | 0.0 | 0.00 | 0.00 | 0.00 | 65 | 1015.2 |
| 20260905051548 | 13 | 93 | 0.0 | 0.0 | 0.00 | 0.00 | 0.00 | 64 | 1015.2 |
| 20260905050048 | 14 | 93 | 0.0 | 0.0 | 0.00 | 0.00 | 0.00 | 64 | 1015.2 |
| 20260905044548 | 14 | 93 | 0.0 | 0.0 | 0.00 | 0.00 | 0.00 | 63 | 1015.3 |
| 20260905043147 | 14 | 94 | 0.0 | 0.0 | 0.00 | 0.00 | 0.00 | 62 | 1015.2 |
| 20260905041545 | 15 | 94 | 0.0 | 0.0 | 0.00 | 0.00 | 0.00 | 61 | 1015.1 |
| 20260905040045 | 15 | 94 | 0.0 | 0.0 | 0.00 | 0.00 | 0.00 | 60 | 1015.1 |
| 20260905034548 | 15 | 95 | 0.0 | 0.0 | 0.00 | 0.00 | 0.00 | 58 | 1014.9 |
| 20260905033042 | 15 | 233 | 0.0 | 0.0 | 0.00 | 0.00 | 0.00 | 57 | 1015.0 |
| 20260905031541 | 16 | 234 | 0.0 | 0.0 | 0.00 | 0.00 | 0.00 | 57 | 1014.8 |
| 20260905030041 | 16 | 161 | 0.0 | 4.8 | 0.00 | 0.00 | 0.00 | 56 | 1014.7 |
| 20260905024556 | 16 | 325 | 0.0 | 3.2 | 0.00 | 0.00 | 0.00 | 55 | 1014.6 |
| 20260905023043 | 17 | 295 | 0.0 | 4.8 | 0.00 | 0.00 | 0.00 | 54 | 1014.7 |
| 20260905021542 | 17 | 74 | 0.0 | 1.6 | 0.00 | 0.00 | 0.00 | 52 | 1014.7 |
| 20260905020044 | 17 | 85 | 0.0 | 4.8 | 0.00 | 0.00 | 0.00 | 50 | 1014.7 |
| 20260905014538 | 18 | 296 | 1.6 | 6.4 | 0.00 | 0.00 | 0.00 | 48 | 1014.6 |
| 20260905013034 | 18 | 288 | 1.6 | 6.4 | 0.00 | 0.00 | 0.00 | 47 | 1014.5 |
| 20260905011533 | 18 | 355 | 3.2 | 11.3 | 0.00 | 0.00 | 0.00 | 47 | 1014.2 |
| 20260905010032 | 18 | 348 | 0.0 | 8.0 | 0.00 | 0.00 | 0.00 | 46 | 1014.0 |
| 20260905004528 | 19 | 98 | 1.6 | 11.3 | 0.00 | 0.00 | 0.00 | 43 | 1013.7 |
| 20260905003027 | 20 | 153 | 1.6 | 12.9 | 0.00 | 0.00 | 0.00 | 42 | 1013.4 |
| 20260905001525 | 20 | 252 | 0.0 | 11.3 | 0.00 | 0.00 | 0.00 | 42 | 1013.3 |
| 20260905000025 | 20 | 355 | 1.6 | 9.7 | 0.00 | 0.00 | 0.00 | 41 | 1013.4 |
| 20260904234536 | 21 | 317 | 1.6 | 9.7 | 0.00 | 0.00 | 0.00 | 41 | 1013.4 |
| 20260904233022 | 21 | 9 | 3.2 | 16.1 | 0.00 | 0.00 | 0.00 | 39 | 1013.3 |
| 20260904231521 | 21 | 105 | 0.0 | 12.9 | 0.00 | 0.00 | 0.00 | 40 | 1013.1 |
| 20260904230025 | 21 | 66 | 3.2 | 14.5 | 0.00 | 0.00 | 0.00 | 39 | 1013.1 |
| 20260904224535 | 21 | 355 | 3.2 | 9.7 | 0.00 | 0.00 | 0.00 | 37 | 1013.0 |
| 20260904223019 | 22 | 297 | 3.2 | 12.9 | 0.00 | 0.00 | 0.00 | 39 | 1013.0 |
| 20260904221517 | 22 | 32 | 4.8 | 14.5 | 0.00 | 0.00 | 0.00 | 37 | 1012.9 |
| 20260904220016 | 22 | 265 | 1.6 | 6.4 | 0.00 | 0.00 | 0.00 | 36 | 1013.0 |
| 20260904214532 | 22 | 251 | 4.8 | 16.1 | 0.00 | 0.00 | 0.00 | 39 | 1012.9 |
| 20260904213010 | 21 | 76 | 1.6 | 12.9 | 0.00 | 0.00 | 0.00 | 39 | 1012.9 |
| 20260904211508 | 21 | 247 | 3.2 | 9.7 | 0.00 | 0.00 | 0.00 | 43 | 1012.8 |
| 20260904210007 | 20 | 73 | 0.0 | 14.5 | 0.00 | 0.00 | 0.00 | 44 | 1012.7 |
| 20260904204505 | 21 | 333 | 1.6 | 6.4 | 0.00 | 0.00 | 0.00 | 44 | 1012.7 |
| 20260904203002 | 20 | 153 | 1.6 | 4.8 | 0.00 | 0.00 | 0.00 | 48 | 1012.7 |
| 20260904201604 | 19 | 246 | 1.6 | 4.8 | 0.00 | 0.00 | 0.00 | 52 | 1012.8 |
| 20260904200100 | 19 | 198 | 1.6 | 6.4 | 0.00 | 0.00 | 0.00 | 53 | 1012.7 |
| 20260904194602 | 18 | 142 | 0.0 | 6.4 | 0.00 | 0.00 | 0.00 | 57 | 1012.8 |
| 20260904193055 | 18 | 182 | 1.6 | 6.4 | 0.00 | 0.00 | 0.00 | 56 | 1012.9 |
| 20260904191553 | 18 | 265 | 0.0 | 6.4 | 0.00 | 0.00 | 0.00 | 57 | 1012.9 |
| 20260904190051 | 17 | 275 | 0.0 | 4.8 | 0.00 | 0.00 | 0.00 | 57 | 1012.9 |
| 20260904184601 | 17 | 288 | 1.6 | 4.8 | 0.00 | 0.00 | 0.00 | 59 | 1012.8 |
| 20260904183047 | 16 | 155 | 0.0 | 3.2 | 0.00 | 0.00 | 0.00 | 62 | 1013.0 |
| 20260904181547 | 17 | 13 | 0.0 | 6.4 | 0.00 | 0.00 | 0.00 | 61 | 1012.8 |
| 20260904180058 | 16 | 165 | 0.0 | 3.2 | 0.00 | 0.00 | 0.00 | 63 | 1012.8 |
| 20260904174542 | 16 | 202 | 1.6 | 3.2 | 0.00 | 0.00 | 0.00 | 65 | 1012.9 |
| 20260904173045 | 15 | 241 | 0.0 | 3.2 | 0.00 | 0.00 | 0.00 | 66 | 1013.1 |
| 20260904171543 | 15 | 271 | 1.6 | 11.3 | 0.00 | 0.00 | 0.00 | 66 | 1013.1 |
| 20260904170038 | 16 | 270 | 1.6 | 9.7 | 0.00 | 0.00 | 0.00 | 65 | 1012.9 |
| 20260904164532 | 15 | 291 | 0.0 | 4.8 | 0.00 | 0.00 | 0.00 | 66 | 1012.8 |
| 20260904163030 | 15 | 328 | 1.6 | 8.0 | 0.00 | 0.00 | 0.00 | 67 | 1012.9 |
| 20260904161526 | 14 | 5 | 1.6 | 8.0 | 0.00 | 0.00 | 0.00 | 67 | 1012.9 |
| 20260904160035 | 14 | 271 | 1.6 | 8.0 | 0.00 | 0.00 | 0.00 | 67 | 1012.7 |
| 20260904154518 | 13 | 258 | 0.0 | 4.8 | 0.00 | 0.00 | 0.00 | 68 | 1012.7 |
| 20260904153014 | 12 | 257 | 0.0 | 1.6 | 0.00 | 0.00 | 0.00 | 70 | 1012.5 |
| 20260904151515 | 12 | 251 | 0.0 | 3.2 | 0.00 | 0.00 | 0.00 | 76 | 1012.4 |